Location: PSU-Greenbush Astrophysical Observatory
(37.5140°N, 94.9880°W)
Time: 09:38:39
(UTC-06:00)

Altair - Pass Details

Date: 24 January 2020
Orbit: 1502 x 1682 km, 47.2° (Epoch: 24 February)

Event Time Altitude Azimuth Distance (km) Brightness Sun altitude
Rises 10:05:14 0° 254° (WSW) 4,884 9.9 23.6°
Reaches altitude 10° 10:08:26 10° 258° (WSW) 3,914 9.5 24.0°
Maximum altitude 10:18:26 63° 339° (NNW) 1,846 8.0 25.1°
Drops below altitude 10° 10:28:31 10° 59° (ENE) 3,935 9.8 26.3°
Sets 10:31:44 0° 63° (ENE) 4,912 10.2 26.6°
